EA4BPO Weather Reports


Display with metric or nautical units.
time (UTC)temp
F
wind
direction
speed
MPH
gust
MPH
rain 1hr
in
rain 24hr
in
rain mn
in
humidity
%
barometer
mb
20260510093004 54 184 8.0 18.0 0.00 0.50 0.11 89 1011.5
20260510092505 54 188 7.0 17.0 0.00 0.50 0.11 89 1011.5
20260510092004 53 192 8.0 17.0 0.01 0.50 0.11 89 1011.6
20260510091505 53 187 9.0 17.0 0.01 0.50 0.11 90 1011.6
20260510091026 53 184 8.0 15.0 0.01 0.50 0.11 93 1011.6
20260510090525 53 184 7.0 14.0 0.01 0.50 0.11 95 1011.6
20260510090004 53 177 8.0 16.0 0.01 0.50 0.11 96 1011.6
20260510085504 52 175 7.0 16.0 0.02 0.50 0.11 96 1011.8
20260510085004 52 179 6.0 11.0 0.02 0.50 0.11 97 1011.9
20260510084505 52 175 6.0 13.0 0.03 0.50 0.11 97 1011.7
20260510084004 52 170 6.0 13.0 0.03 0.50 0.11 97 1011.9
20260510083504 52 183 6.0 11.0 0.03 0.50 0.11 97 1011.9
20260510083004 52 190 5.0 11.0 0.03 0.50 0.11 97 1012.0
20260510082505 52 177 6.0 11.0 0.03 0.50 0.11 97 1012.0
20260510082004 52 172 6.0 11.0 0.02 0.49 0.10 97 1012.2
20260510081504 52 181 6.0 13.0 0.02 0.49 0.10 97 1012.0
20260510081005 51 179 6.0 13.0 0.02 0.49 0.10 96 1011.9
20260510080505 52 175 5.0 9.0 0.02 0.49 0.10 96 1011.9
20260510080005 51 192 4.0 9.0 0.02 0.49 0.10 96 1012.1
20260510075505 51 204 5.0 10.0 0.01 0.48 0.09 95 1012.0
20260510075004 52 192 7.0 11.0 0.01 0.48 0.09 95 1012.1
20260510074505 52 185 7.0 14.0 0.00 0.47 0.08 94 1012.2
20260510074004 52 190 8.0 15.0 0.00 0.47 0.08 93 1012.3
20260510073504 52 187 7.0 15.0 0.00 0.47 0.08 93 1012.1
20260510073004 52 187 7.0 13.0 0.00 0.47 0.08 92 1012.1
20260510072505 52 195 7.0 13.0 0.00 0.47 0.08 92 1012.2
20260510072004 52 191 7.0 15.0 0.00 0.47 0.08 92 1012.0
20260510071504 52 183 8.0 16.0 0.00 0.47 0.08 92 1012.1
20260510071004 52 180 8.0 16.0 0.00 0.47 0.08 92 1012.0
20260510070525 52 178 8.0 14.0 0.00 0.47 0.08 92 1012.0
20260510070005 51 181 7.0 14.0 0.00 0.47 0.08 93 1012.0
20260510065504 51 179 7.0 15.0 0.00 0.47 0.08 93 1012.0
20260510065004 51 179 6.0 15.0 0.00 0.47 0.08 93 1011.7
20260510064504 51 180 5.0 11.0 0.00 0.47 0.08 94 1012.1
20260510064005 51 181 4.0 9.0 0.00 0.47 0.08 94 1011.8
20260510063504 50 183 3.0 7.0 0.00 0.47 0.08 95 1011.9
20260510063004 50 188 3.0 7.0 0.00 0.47 0.08 95 1011.9
20260510062504 50 193 4.0 8.0 0.00 0.47 0.08 95 1011.8
20260510062004 50 194 5.0 8.0 0.00 0.47 0.08 95 1011.9
20260510061505 50 193 4.0 7.0 0.00 0.47 0.08 96 1011.9
20260510061004 49 184 4.0 9.0 0.00 0.47 0.08 96 1011.8
20260510060504 49 182 5.0 10.0 0.00 0.47 0.08 96 1011.8
20260510060005 49 184 4.0 10.0 0.00 0.47 0.08 96 1011.7
20260510055504 49 182 5.0 8.0 0.00 0.47 0.08 96 1011.6
20260510055004 49 186 5.0 11.0 0.00 0.47 0.08 96 1011.5
20260510054504 49 190 5.0 11.0 0.00 0.47 0.08 97 1011.7
20260510054005 49 183 4.0 10.0 0.00 0.47 0.08 97 1011.6
20260510053525 49 183 4.0 8.0 0.00 0.47 0.08 97 1011.5
20260510053004 49 188 4.0 8.0 0.00 0.47 0.08 97 1011.6
20260510052504 49 187 5.0 8.0 0.00 0.47 0.08 97 1011.6
20260510052004 49 186 4.0 8.0 0.00 0.47 0.08 97 1011.6
20260510051504 49 178 3.0 8.0 0.00 0.47 0.08 97 1011.8
20260510051004 49 164 2.0 6.0 0.00 0.47 0.08 97 1011.6
20260510050504 49 159 2.0 4.0 0.00 0.47 0.08 97 1011.8
20260510050005 49 159 2.0 4.0 0.00 0.47 0.08 98 1011.5
20260510045504 49 153 2.0 3.0 0.00 0.47 0.08 98 1011.6
20260510045004 49 159 2.0 4.0 0.00 0.47 0.08 98 1011.6
20260510044504 49 170 2.0 4.0 0.00 0.47 0.08 98 1011.5
20260510044004 49 167 1.0 4.0 0.00 0.47 0.08 98 1011.6
20260510043504 49 160 1.0 3.0 0.00 0.47 0.08 98 1011.6
20260510043004 49 162 2.0 3.0 0.00 0.47 0.08 98 1011.4
20260510042525 49 163 2.0 4.0 0.00 0.47 0.08 98 1011.5
20260510042025 49 170 3.0 4.0 0.00 0.47 0.08 98 1011.5
20260510041504 49 169 3.0 6.0 0.00 0.47 0.08 98 1011.7
20260510041004 49 160 3.0 6.0 0.00 0.47 0.08 98 1011.7
20260510040504 49 159 3.0 4.0 0.00 0.47 0.08 98 1011.7
20260510040004 49 159 3.0 4.0 0.00 0.47 0.08 98 1011.8
20260510035504 49 161 3.0 4.0 0.00 0.47 0.08 97 1011.7
20260510035004 49 164 3.0 6.0 0.00 0.47 0.08 97 1011.6
20260510034504 49 164 3.0 6.0 0.00 0.47 0.08 97 1011.7
20260510034025 49 166 3.0 6.0 0.00 0.47 0.08 97 1011.7
20260510033504 49 162 3.0 6.0 0.00 0.47 0.08 97 1011.9
20260510033025 49 161 3.0 6.0 0.00 0.47 0.08 97 1011.7
20260510032504 49 161 3.0 6.0 0.00 0.47 0.08 97 1011.8
20260510032004 49 166 3.0 6.0 0.00 0.47 0.08 97 1012.0
20260510031504 49 179 3.0 6.0 0.00 0.47 0.08 97 1012.0
20260510031025 49 186 3.0 6.0 0.00 0.47 0.08 97 1012.0
20260510030504 49 184 3.0 6.0 0.00 0.47 0.08 97 1012.0
20260510030004 49 190 2.0 6.0 0.00 0.47 0.08 97 1012.2
20260510025504 50 189 3.0 6.0 0.00 0.47 0.08 97 1012.0
20260510025004 50 188 3.0 6.0 0.00 0.47 0.08 96 1012.1
20260510024525 50 196 2.0 6.0 0.00 0.47 0.08 96 1012.3
20260510024004 50 191 3.0 6.0 0.00 0.47 0.08 96 1012.3
20260510023504 50 188 3.0 6.0 0.00 0.47 0.08 96 1012.2
20260510023004 50 191 3.0 6.0 0.00 0.47 0.08 96 1012.3
20260510022504 50 192 3.0 6.0 0.00 0.47 0.08 96 1012.1
20260510022004 50 191 2.0 4.0 0.00 0.47 0.08 96 1012.1
20260510021525 50 195 2.0 6.0 0.00 0.47 0.08 96 1012.1
20260510021004 50 209 3.0 6.0 0.00 0.47 0.08 95 1012.3
20260510020504 50 216 3.0 6.0 0.00 0.47 0.08 95 1012.0
20260510020025 50 206 3.0 4.0 0.00 0.47 0.08 95 1012.3
20260510015504 50 197 3.0 6.0 0.00 0.47 0.08 95 1012.3
20260510015004 50 196 3.0 6.0 0.00 0.47 0.08 95 1012.1
20260510014504 50 195 3.0 6.0 0.00 0.47 0.08 95 1012.1
20260510014025 50 198 2.0 6.0 0.00 0.47 0.08 95 1012.1
20260510013525 50 208 2.0 6.0 0.00 0.47 0.08 95 1012.0
20260510013004 50 208 3.0 8.0 0.00 0.47 0.08 95 1012.2
20260510012505 50 211 4.0 8.0 0.00 0.47 0.08 95 1012.5
20260510012004 50 210 3.0 7.0 0.00 0.47 0.08 95 1012.2
20260510011504 50 212 2.0 7.0 0.00 0.47 0.08 95 1012.2
20260510011025 51 215 3.0 6.0 0.00 0.47 0.08 95 1012.6
20260510010504 51 216 4.0 6.0 0.00 0.47 0.08 95 1012.3
20260510010025 51 210 3.0 6.0 0.00 0.47 0.08 95 1012.3
20260510005504 51 198 2.0 4.0 0.00 0.47 0.08 95 1012.2
20260510005004 51 204 2.0 7.0 0.00 0.47 0.08 94 1012.2
20260510004525 50 212 4.0 7.0 0.00 0.47 0.08 94 1012.2
20260510004004 50 221 4.0 7.0 0.00 0.47 0.08 94 1012.5
20260510003504 50 222 4.0 8.0 0.00 0.47 0.08 94 1012.7
20260510003004 50 211 4.0 8.0 0.00 0.47 0.08 95 1012.5
20260510002504 50 208 5.0 10.0 0.01 0.47 0.08 95 1012.5
20260510002004 50 215 6.0 10.0 0.01 0.47 0.08 95 1012.6
20260510001504 50 215 6.0 13.0 0.01 0.47 0.08 95 1012.7
20260510001004 50 208 6.0 13.0 0.01 0.47 0.08 95 1012.3
20260510000504 50 208 6.0 11.0 0.02 0.47 0.08 95 1012.6
20260510000004 50 225 5.0 17.0 0.03 0.47 0.08 95 1012.6
20260509235525 50 229 7.0 17.0 0.05 0.47 0.08 95 1012.6
20260509235004 50 223 7.0 15.0 0.06 0.47 0.08 95 1012.6
20260509234504 50 212 5.0 13.0 0.08 0.47 0.08 96 1012.7
20260509234004 50 209 4.0 8.0 0.08 0.47 0.08 96 1012.5
20260509233504 50 209 3.0 8.0 0.08 0.47 0.08 96 1012.8
20260509233004 50 208 5.0 11.0 0.08 0.47 0.08 96 1012.5
20260509232504 50 208 6.0 11.0 0.07 0.46 0.07 95 1012.8
20260509232004 50 208 5.0 10.0 0.07 0.46 0.07 95 1012.8
20260509231525 50 211 4.0 8.0 0.07 0.46 0.07 95 1012.7
20260509231004 50 222 7.0 17.0 0.07 0.46 0.07 95 1012.7
20260509230504 50 221 7.0 17.0 0.06 0.45 0.06 95 1012.7
20260509230004 51 207 5.0 13.0 0.05 0.44 0.05 95 1013.1
20260509225504 51 202 6.0 13.0 0.03 0.42 0.03 94 1012.8
20260509225025 51 198 5.0 10.0 0.02 0.41 0.02 94 1012.8
20260509224504 51 217 3.0 9.0 0.00 0.39 0.00 94 1012.5
20260509224005 51 230 3.0 8.0 0.00 0.39 0.00 94 1012.3
20260509223504 51 229 2.0 6.0 0.00 0.39 0.00 94 1012.2
20260509223004 51 238 2.0 6.0 0.00 0.39 0.00 95 1012.5
20260509222504 51 241 1.0 3.0 0.00 0.39 0.00 95 1012.7
20260509222025 51 220 1.0 3.0 0.00 0.39 0.00 95 1012.6
20260509221504 51 203 1.0 4.0 0.01 0.39 0.00 95 1012.2
20260509221004 51 209 1.0 4.0 0.01 0.39 0.00 95 1012.2
20260509220504 51 220 2.0 6.0 0.01 0.39 0.00 94 1012.2
20260509220004 51 239 3.0 8.0 0.01 0.39 0.00 94 1012.1
20260509215525 50 253 5.0 8.0 0.02 0.39 0.39 94 1011.8
20260509215004 50 252 5.0 11.0 0.03 0.39 0.39 94 1011.8
20260509214504 50 248 5.0 11.0 0.04 0.39 0.39 94 1012.0
20260509214004 50 255 6.0 11.0 0.06 0.39 0.39 94 1012.0
20260509213525 50 260 5.0 9.0 0.09 0.39 0.39 95 1011.8
20260509213004 50 255 6.0 11.0 0.09 0.39 0.39 95 1011.6
20260509212504 50 253 7.0 11.0 0.09 0.39 0.39 95 1011.8
20260509212004 50 255 7.0 15.0 0.09 0.39 0.39 94 1011.8
20260509211504 50 252 8.0 18.0 0.08 0.38 0.38 94 1011.9
20260509211004 50 252 9.0 18.0 0.08 0.38 0.38 94 1011.8
20260509210504 50 257 9.0 18.0 0.08 0.38 0.38 94 1011.8
20260509210004 51 253 9.0 16.0 0.08 0.38 0.38 94 1011.6
20260509205525 51 248 9.0 17.0 0.07 0.37 0.37 93 1011.8
20260509205005 51 250 11.0 25.0 0.06 0.36 0.36 92 1011.8
20260509204504 51 253 14.0 27.0 0.05 0.35 0.35 90 1011.7
20260509204004 53 238 11.0 27.0 0.03 0.33 0.33 86 1011.6
20260509203504 56 193 10.0 17.0 0.00 0.30 0.30 79 1011.0
20260509203025 56 189 10.0 17.0 0.00 0.30 0.30 79 1010.4
20260509202504 56 190 9.0 16.0 0.00 0.30 0.30 79 1010.3
20260509202004 56 192 9.0 16.0 0.00 0.30 0.30 80 1010.4
20260509201504 56 190 8.0 15.0 0.00 0.30 0.30 80 1010.2
20260509201004 56 185 7.0 13.0 0.00 0.30 0.30 80 1009.8
20260509200504 56 186 8.0 15.0 0.00 0.30 0.30 81 1009.8
20260509200004 56 184 9.0 19.0 0.00 0.30 0.30 81 1009.7
20260509195504 56 181 9.0 19.0 0.00 0.30 0.30 80 1009.8
20260509195004 57 185 9.0 16.0 0.00 0.30 0.30 80 1009.7
20260509194504 57 191 9.0 16.0 0.00 0.30 0.30 79 1009.7
20260509194025 57 188 9.0 16.0 0.00 0.30 0.30 78 1009.5
20260509193504 57 176 7.0 15.0 0.00 0.30 0.30 77 1009.2
20260509193004 57 181 7.0 15.0 0.00 0.30 0.30 76 1009.1
20260509192504 58 188 7.0 15.0 0.00 0.30 0.30 75 1009.0
20260509192004 58 193 8.0 17.0 0.00 0.30 0.30 74 1009.1
20260509191504 58 195 9.0 18.0 0.00 0.30 0.30 73 1009.1
20260509191004 58 191 9.0 18.0 0.00 0.30 0.30 74 1008.9
20260509190504 58 186 7.0 16.0 0.00 0.30 0.30 76 1008.7
20260509190025 58 187 7.0 15.0 0.00 0.30 0.30 78 1009.0
20260509185525 58 179 6.0 15.0 0.00 0.30 0.30 79 1008.5
20260509185025 58 182 6.0 14.0 0.00 0.30 0.30 81 1008.8
20260509184504 58 182 6.0 14.0 0.00 0.30 0.30 81 1008.9
20260509184004 59 167 7.0 15.0 0.00 0.30 0.30 81 1008.8
20260509183525 59 162 9.0 15.0 0.00 0.30 0.30 81 1008.6
20260509183004 59 161 9.0 15.0 0.00 0.30 0.30 82 1008.6
20260509182504 59 164 8.0 15.0 0.00 0.30 0.30 82 1008.7
20260509182004 59 166 8.0 13.0 0.00 0.30 0.30 82 1008.7
20260509181504 59 167 8.0 15.0 0.00 0.30 0.30 83 1008.9
20260509181004 59 167 8.0 17.0 0.00 0.30 0.30 83 1008.7
20260509180525 59 169 8.0 17.0 0.00 0.30 0.30 84 1009.0
20260509180025 59 170 8.0 17.0 0.00 0.30 0.30 84 1008.8
20260509175504 59 178 7.0 17.0 0.00 0.30 0.30 83 1008.7
20260509175004 59 185 6.0 13.0 0.00 0.30 0.30 84 1008.7
20260509174504 59 185 7.0 13.0 0.00 0.30 0.30 85 1008.9
20260509174025 59 184 6.0 11.0 0.00 0.30 0.30 86 1008.7
20260509173504 59 173 4.0 9.0 0.00 0.30 0.30 87 1008.8
20260509173004 58 166 3.0 7.0 0.01 0.30 0.30 87 1009.0
20260509172504 58 170 2.0 11.0 0.04 0.30 0.30 88 1009.0
20260509172004 57 175 3.0 11.0 0.08 0.30 0.30 90 1009.0
20260509171504 56 179 5.0 10.0 0.08 0.30 0.30 89 1008.6
20260509171004 56 183 6.0 11.0 0.08 0.30 0.30 89 1008.8
20260509170525 55 187 6.0 14.0 0.08 0.30 0.30 90 1008.8
20260509170004 55 186 7.0 14.0 0.08 0.30 0.30 90 1008.8
20260509165504 54 185 6.0 14.0 0.08 0.30 0.30 90 1009.1
20260509165004 55 184 6.0 13.0 0.08 0.30 0.30 91 1008.7
20260509164525 54 180 7.0 13.0 0.08 0.30 0.30 92 1008.8
20260509164004 53 185 7.0 19.0 0.08 0.30 0.30 93 1008.7
20260509163504 53 182 10.0 25.0 0.08 0.30 0.30 92 1008.9
20260509163004 55 176 11.0 25.0 0.07 0.29 0.29 91 1008.8
20260509162504 58 171 6.0 25.0 0.04 0.26 0.26 87 1009.0
20260509162025 59 165 2.0 6.0 0.00 0.22 0.22 81 1008.8
20260509161504 60 154 1.0 4.0 0.00 0.22 0.22 79 1008.7
20260509161004 60 143 2.0 6.0 0.00 0.22 0.22 78 1008.5
20260509160504 61 133 1.0 6.0 0.00 0.22 0.22 77 1008.6
20260509160004 62 129 1.0 3.0 0.00 0.22 0.22 76 1008.4
20260509155504 61 127 1.0 3.0 0.00 0.22 0.22 76 1008.5
20260509155004 62 83 1.0 3.0 0.01 0.22 0.22 73 1008.7
20260509154504 61 65 1.0 3.0 0.01 0.22 0.22 77 1008.6
20260509154004 61 23 1.0 3.0 0.01 0.22 0.22 76 1008.5
20260509153525 60 53 1.0 2.0 0.01 0.22 0.22 79 1008.6
20260509153004 59 134 1.0 3.0 0.01 0.22 0.22 80 1008.6
20260509152504 59 158 1.0 6.0 0.01 0.22 0.22 82 1008.9
20260509152004 58 141 2.0 6.0 0.01 0.22 0.22 83 1008.6
20260509151504 59 161 1.0 4.0 0.01 0.22 0.22 83 1008.8
20260509151004 59 230 2.0 6.0 0.01 0.22 0.22 85 1009.0
20260509150504 58 223 3.0 7.0 0.01 0.22 0.22 86 1009.1
20260509150004 58 222 3.0 10.0 0.01 0.22 0.22 86 1009.1
20260509145525 58 214 4.0 10.0 0.01 0.22 0.22 85 1009.1
20260509145004 58 208 4.0 9.0 0.00 0.21 0.21 82 1009.5
20260509144525 59 195 5.0 9.0 0.00 0.21 0.21 79 1009.5
20260509144004 58 180 5.0 10.0 0.00 0.21 0.21 78 1009.4
20260509143525 58 156 5.0 10.0 0.00 0.21 0.21 78 1009.2
20260509143004 59 140 3.0 8.0 0.00 0.21 0.21 79 1008.9
20260509142504 61 140 2.0 8.0 0.00 0.21 0.21 76 1009.1
20260509142004 61 145 2.0 8.0 0.00 0.21 0.21 78 1008.9
20260509141504 60 145 2.0 9.0 0.00 0.21 0.21 78 1009.0
20260509141004 60 141 4.0 10.0 0.00 0.21 0.21 79 1009.4
20260509140504 58 149 4.0 10.0 0.00 0.21 0.21 79 1009.5
20260509140005 60 160 2.0 6.0 0.00 0.21 0.21 79 1009.5
20260509135504 59 145 1.0 6.0 0.00 0.21 0.21 83 1009.4
20260509135004 58 113 2.0 6.0 0.02 0.21 0.21 83 1009.6
20260509134504 56 96 2.0 6.0 0.07 0.21 0.21 85 1009.7
20260509134004 55 95 1.0 4.0 0.13 0.21 0.21 91 1009.5
20260509133504 54 106 1.0 3.0 0.18 0.21 0.21 93 1009.6
20260509133004 55 113 1.0 3.0 0.19 0.21 0.21 94 1009.7
20260509132504 54 110 1.0 3.0 0.20 0.21 0.21 94 1009.8
20260509132004 54 90 1.0 3.0 0.20 0.21 0.21 95 1009.7
20260509131525 54 135 1.0 6.0 0.20 0.21 0.21 95 1009.7
20260509131004 53 184 3.0 10.0 0.20 0.21 0.21 95 1010.0
20260509130504 54 197 5.0 11.0 0.20 0.21 0.21 95 1010.3
20260509130004 54 205 5.0 11.0 0.20 0.21 0.21 94 1010.2
20260509125504 54 201 3.0 8.0 0.20 0.21 0.21 94 1010.3
20260509125004 54 186 2.0 4.0 0.18 0.19 0.19 93 1010.2
20260509124504 54 211 3.0 7.0 0.13 0.14 0.14 92 1010.2
20260509124004 55 219 5.0 9.0 0.07 0.08 0.08 91 1010.4
20260509123504 55 227 4.0 9.0 0.02 0.03 0.03 89 1010.0
20260509123025 56 260 4.0 8.0 0.01 0.02 0.02 87 1009.9
20260509122525 56 264 5.0 9.0 0.00 0.01 0.01 85 1009.7
20260509122004 56 269 5.0 10.0 0.00 0.01 0.01 84 1009.7
20260509121504 56 271 5.0 10.0 0.00 0.01 0.01 85 1009.6
20260509121025 56 271 4.0 8.0 0.00 0.01 0.01 85 1009.6
20260509120504 56 266 5.0 10.0 0.00 0.01 0.01 86 1009.9
20260509120004 56 257 6.0 10.0 0.00 0.01 0.01 86 1009.6
20260509115504 57 269 5.0 9.0 0.00 0.01 0.01 85 1009.5
20260509115004 56 276 4.0 8.0 0.00 0.01 0.01 86 1009.4
20260509114504 56 264 5.0 9.0 0.00 0.01 0.01 87 1009.4
20260509114004 56 258 4.0 9.0 0.00 0.01 0.01 87 1009.6
20260509113504 56 253 4.0 7.0 0.00 0.01 0.01 87 1009.8
20260509113025 56 256 4.0 7.0 0.01 0.01 0.01 88 1009.6
20260509112504 56 236 3.0 7.0 0.01 0.01 0.01 87 1009.8
20260509112004 56 222 3.0 7.0 0.01 0.01 0.01 86 1009.9
20260509111504 56 220 4.0 9.0 0.01 0.01 0.01 86 1009.7
20260509111004 56 200 6.0 9.0 0.01 0.01 0.01 86 1009.6
20260509110504 56 201 5.0 9.0 0.01 0.01 0.01 85 1009.7
20260509110004 56 210 4.0 9.0 0.01 0.01 0.01 85 1009.8
20260509105504 56 204 3.0 7.0 0.01 0.01 0.01 84 1009.7
20260509105004 57 208 4.0 8.0 0.01 0.02 0.01 84 1009.8
20260509104504 57 201 4.0 8.0 0.01 0.02 0.01 84 1009.8
20260509104004 56 194 3.0 7.0 0.01 0.02 0.01 82 1009.7
20260509103504 56 202 4.0 10.0 0.01 0.02 0.01 82 1009.5
20260509103004 56 198 5.0 10.0 0.00 0.01 0.00 81 1009.7
20260509102525 56 192 6.0 10.0 0.00 0.01 0.00 81 1009.8
20260509102004 56 185 7.0 10.0 0.00 0.01 0.00 82 1009.8
20260509101504 56 187 5.0 9.0 0.00 0.02 0.00 83 1010.0
20260509101004 56 173 6.0 15.0 0.00 0.05 0.00 84 1009.8
20260509100525 55 160 8.0 15.0 0.00 0.05 0.00 84 1009.7
20260509100005 56 162 7.0 15.0 0.00 0.05 0.00 83 1009.7
20260509095525 56 168 6.0 15.0 0.00 0.05 0.00 82 1009.8
20260509095004 57 171 6.0 13.0 0.00 0.05 0.00 80 1009.6
20260509094525 57 172 7.0 14.0 0.00 0.05 0.00 79 1009.7
20260509094004 57 172 7.0 14.0 0.00 0.05 0.00 79 1009.7
20260509093504 58 157 7.0 11.0 0.00 0.05 0.00 79 1009.7